SL-3 R/B

Satellite information

Favourite Embed

Satellite Type and Status

ROCKET BODYIN ORBIT

Key statistics

Satellite SL-3 R/B at a glance.

Uptime

16630

Days in orbit

Revolutions

≈ 14.1

Per day

Orbit

LEO

Low Earth Orbit

Inclination

81.2

Latest

Satellite identification and parameters

Extended collection of information and parameters for SL-3 R/B.

Object identification

Identified? True

Debris? False

Object name: SL-3 R/B

International designator: 1979-095B

Object number (NORAD): 11608

Object ID (CCSDS): 11608

Country: COMMONWEALTH OF INDEPENDENT STATES (CIS)

Current information (Y/N): Y

RCS size: LARGE

Orbital parameters

Period: 102.382 minutes

Inclination: 81.2108 deg

SMA: 7249.535 km

Apoapsis: 910.579 km

Periapsis: 832.221 km

RAAN: 290.1534 deg

Eccentricy: 0.0054043

Argument of periapsis: 335.2752 deg

Mean anomaly: 24.5827 deg

Mean motion: 14.06492846 rev/day

Mean motion (dot): 0.0000025 rev/day2

B* drag term: 0.00014202 1/REarth

Two-line elements (TLE)

Creation date: May 12, 2025, 2:31 a.m.

Reference frame: TEME

Reference center: EARTH

Epoch: May 11, 2025, 9:28 p.m. UTC

TLE line 0: 0 SL-3 R/B

TLE line 1: 1 11608U 79095B 25131.89491592 .00000250 00000-0 14202-3 0 9994

TLE line 2: 2 11608 81.2108 290.1534 0054043 335.2752 24.5827 14.06492846335402

Live tracking on map

Real-time ground track for satellite SL-3 R/B.

In-orbit conjunctions

A list of the most updated potential collisions computed for object SL-3 R/B.

Target Orbit TCA Probability of collision Miss distance Type
FENGYUN 1C DEB SSO 2024-12-13 04:48:39 0.0001451738 523.0 (m) DEBRIS
CZ-6A DEB SSO 2024-10-03 13:19:43 0.0001265571 643.0 (m) DEBRIS
FENGYUN 1C DEB SSO 2024-08-27 10:56:44 0.0001151437 398.0 (m) DEBRIS

Associated space launch

Second generation soviet meteorological satellite

SL-3 R/B was lifted into orbit during the mission ‘Vostok 8A92M | Meteor-2 5’, on board a Vostok 8A92M space rocket.

The launch took place on Oct. 31, 1979, 9:25 a.m. from 43/4 (43R).

For more information about the launch, click the button.

Launch to space Vostok 8A92M | Meteor-2 5
Vostok 8A92M | Meteor-2 5

Agency: N/A

Status: Launch Successful

Launch date: Oct. 31, 1979, 9:25 a.m. UTC

Rocket: Vostok 8A92M

Launch pad: 43/4 (43R)

Location: Plesetsk Cosmodrome, Russian Federation

...

Latest news about this satellite

There are no fresh news available about this satellite. Check back as we update our databases every day.


Newsletter sign-up

Weekly statistics, charts and insights to help you stay on top of the space industry.